Volver al catálogo

COSMOS 972

ActivoMilitarLEO
NORAD 10539·PAYLOAD·🇷🇺 Russia

Lanzado Dec 27, 1977 desde Plesetsk Cosmodrome

Loading…

Próximos Pases (próximas 24 horas)

TLE

ActualizadoSource: Space-Track

Época: Sep 14, 2026, 14:28 UTC

1 10539U 77123A   26257.60333724  .00000023  00000-0  19964-4 0  9996
2 10539  75.8367 330.2202 0302015   4.8365 355.5573 13.89167846468469

Sigue COSMOS 972 en tiempo real con AllMySat

Download on the App Store